Regional Weather Roundup
Issued by NWS Nashville, TN

Home | Current Version | Previous Version | Text Only | Print | Product List | Glossary On
Versions: 1 2 3 4 5 6 7 8 9 10 11 12 13 14 15 16 17 18 19 20 21 22 23 24 25 26 27 28 29 30 31 32 33 34 35 36 37 38 39 40 41 42 43 44 45 46 47 48 49 50
580
ASUS44 KOHX 271710
RWROHX
MIDDLE TENNESSEE HOURLY WEATHER ROUNDUP
NATIONAL WEATHER SERVICE NASHVILLE TN
1200 PM CDT SUN MAY 27 2018

NOTE: "FAIR" INDICATES FEW OR NO CLOUDS BELOW 12,000 FEET WITH
NO SIGNIFICANT WEATHER AND/OR OBSTRUCTIONS TO VISIBILITY.

* THESE REPORTS ARE NOT UNDER NWS QUALITY CONTROL AND MAY NOT
  REPORT WEATHER SUCH AS PRECIPITATION AND FOG.


TNZ005>011-023>034-057-059-062>066-078-080-271800
...NORTHERN MIDDLE TENNESSEE...

CITY           SKY/WX    TMP DP  RH WIND       PRES   REMARKS
CLARKSVILLE      N/A     86  68  54 S5        29.93F
CROSSVILLE     CLOUDY    76  65  68 E3        30.01F
DICKSON        SUNNY     82  70  65 VRB7      29.95S
LIVINGSTON     SUNNY     79  70  73 CALM      29.98F
NASHVILLE      PTSUNNY   86  67  52 SE8       29.95S
PORTLAND       SUNNY     84  70  61 CALM      29.95F
ROCKWOOD       PTSUNNY   72  68  88 VRB3      30.01F
SMYRNA           N/A     84  69  60 NE5       29.95F
SPARTA         MOSUNNY   82  70  65 N5        29.96F
SPRINGFIELD    MOSUNNY   84  72  65 VRB5      29.94S
WEST NASHVILLE SUNNY     84  68  58 CALM      29.93S
$$
TNZ056-058-060-061-075>077-079-093>097-271800
...SOUTHERN MIDDLE TENNESSEE...

CITY           SKY/WX    TMP DP  RH WIND       PRES   REMARKS
COLUMBIA       MOSUNNY   84  68  58 CALM      29.93F
LEWISBURG      MOSUNNY   84  70  61 NE7       29.94F
MCMINNVILLE    MOSUNNY   82  70  65 NE5       29.96F
MURFREESBORO   SUNNY     84  68  58 NE5       29.93F
PULASKI        MOSUNNY   84  70  61 E7        29.94F
SHELBYVILLE    SUNNY     82  68  61 CALM      29.95F
TULLAHOMA      PTSUNNY   81  70  69 CALM      29.96F
WINCHESTER     MOSUNNY   82  70  65 S7        29.96F
$$


...KEY TO REMARKS...
VSB - VISIBILITY IN MILES
WCI - WIND CHILL INDEX
HX  - HEAT INDEX





USA.gov is the U.S. government's official web portal to all federal, state and local government web resources and services.